This demonstration page uses our WeatherBlox Daily Observations layout. Learn more.

Left ArrowRight Arrow

Hourly Observations for October 2, 2016

Temp ( °F °C ) Dew Point ( °F °C ) Humidity (%) Winds ( mph kmh ) Pressure ( in mb ) Visibility ( mi km ) Precip ( " mm )
12:53 am 00:53 Cloudy 54 12.2 49 9.4 83 83 SSW 9 15 29.94 1014 10 16 0.00 0.00
1:53 am 01:53 Mostly Clear 54 12.2 44 6.7 69 69 WSW 9 15 29.97 1015 10 16 0.00 0.00
2:53 am 02:53 Clear 48 8.9 41 5 77 77 WSW 9 15 30.00 1016 10 16 0.00 0.00
3:53 am 03:53 Clear 46 7.8 39 3.9 77 77 SSW 14 22 30.01 1016 10 16 0.00 0.00
4:53 am 04:53 Clear 43 6.1 37 2.8 80 80 SSW 7 11 30.03 1017 10 16 0.00 0.00
5:53 am 05:53 Clear 41 5 35 1.7 79 79 SW 5 7 30.05 1018 10 16 0.00 0.00
6:53 am 06:53 Clear 37 2.8 34 1.1 89 89 W 8 13 30.06 1018 10 16 0.00 0.00
7:53 am 07:53 Sunny 37 2.8 35 1.7 93 93 SW 8 13 30.07 1018 10 16 0.00 0.00
8:53 am 08:53 Sunny 44 6.7 39 3.9 83 83 W 6 9 30.07 1018 10 16 0.00 0.00
9:53 am 09:53 Sunny 50 10 38 3.3 63 63 SW 7 11 30.07 1018 10 16 0.00 0.00
10:53 am 10:53 Sunny 56 13.3 39 3.9 53 53 Calm 30.04 1017 10 16 0.00 0.00
11:53 am 11:53 Mostly Cloudy 58 14.4 35 1.7 42 42 N 6 9 30.01 1016 10 16 0.00 0.00
12:53 pm 12:53 Mostly Cloudy 62 16.7 36 2.2 38 38 NNE 6 9 29.99 1016 10 16 0.00 0.00
1:53 pm 13:53 Cloudy 61 16.1 37 2.8 41 41 NE 6 9 29.98 1015 10 16 0.00 0.00
2:53 pm 14:53 Mostly Sunny 63 17.2 37 2.8 38 38 E 12 19 29.95 1014 10 16 0.00 0.00
3:53 pm 15:53 Sunny 62 16.7 36 2.2 38 38 ENE 14 22 29.94 1014 10 16 0.00 0.00
4:53 pm 16:53 Mostly Cloudy 61 16.1 36 2.2 39 39 ENE 14 22 29.93 1014 10 16 0.00 0.00
5:53 pm 17:53 Mostly Cloudy 60 15.6 36 2.2 41 41 E 10 17 29.91 1013 10 16 0.00 0.00
6:53 pm 18:53 Cloudy 58 14.4 39 3.9 50 50 E 10 17 29.91 1013 10 16 0.00 0.00
7:53 pm 19:53 Cloudy with Light Rain 56 13.3 40 4.4 55 55 ESE 13 20 29.91 1013 10 16 0.00 0.03
8:53 pm 20:53 Cloudy 54 12.2 43 6.1 67 67 E 14 22 29.90 1013 10 16 0.00 0.03
9:53 pm 21:53 Cloudy 54 12.2 43 6.1 67 67 E 7 11 29.87 1012 10 16 0.00 0.00
10:53 pm 22:53 Cloudy 53 11.7 45 7.2 74 74 E 7 11 29.86 1011 10 16 0.00 0.00
11:53 pm 23:53 Cloudy 52 11.1 45 7.2 77 77 ENE 13 20 29.83 1010 10 16 0.00 0.03

Powered by AerisWeather